COSMOS 886 DEB

Satellite information

Favourite Embed

Satellite Type and Status

DEBRISIN ORBIT

Key statistics

Satellite COSMOS 886 DEB at a glance.

Uptime

17883

Days in orbit

Revolutions

≈ 12.6

Per day

Orbit

MEO

Medium Earth Orbit

Inclination

65.7

Latest

Satellite identification and parameters

Extended collection of information and parameters for COSMOS 886 DEB.

Object identification

Identified? True

Debris? True

Object name: COSMOS 886 DEB

International designator: 1976-126BU

Object number (NORAD): 15762

Object ID (CCSDS): 15762

Country: COMMONWEALTH OF INDEPENDENT STATES (CIS)

Current information (Y/N): Y

RCS size: SMALL

Orbital parameters

Period: 114.342 minutes

Inclination: 65.6567 deg

SMA: 7803.653 km

Apoapsis: 2010.442 km

Periapsis: 840.595 km

RAAN: 219.2906 deg

Eccentricy: 0.07495508

Argument of periapsis: 232.4112 deg

Mean anomaly: 120.6542 deg

Mean motion: 12.59377208 rev/day

Mean motion (dot): -0.00000009 rev/day2

B* drag term: 0.00010341815 1/REarth

Two-line elements (TLE)

Creation date: Dec. 10, 2025, 10:40 a.m.

Reference frame: TEME

Reference center: EARTH

Epoch: Dec. 10, 2025, 1:50 a.m. UTC

TLE line 0: 0 COSMOS 886 DEB

TLE line 1: 1 15762U 76126BU 25344.07656251 -.00000009 00000-0 10342-3 0 9996

TLE line 2: 2 15762 65.6567 219.2906 0749551 232.4112 120.6542 12.59377208678323

Live tracking on map

Real-time ground track for satellite COSMOS 886 DEB.

In-orbit conjunctions

A list of the most updated potential collisions computed for object COSMOS 886 DEB.

Target Orbit TCA Probability of collision Miss distance Type
SL-12 R/B(2) LEO 2025-01-18 18:58:59 0.0004037366 75.0 (m) ROCKET BODY
FENGYUN 1C DEB SSO 2024-06-24 16:45:01 0.0001957681 56.0 (m) DEBRIS

Associated space launch

Second generation ASAT satellite

COSMOS 886 DEB was lifted into orbit during the mission ‘Tsiklon-2 | IS-A 4’, on board a Tsiklon-2 space rocket.

The launch took place on Dec. 27, 1976, 12:05 p.m. from 90.

For more information about the launch, click the button.

Launch to space Tsiklon-2 | IS-A 4
Tsiklon-2 | IS-A 4

Agency: N/A

Status: Launch Successful

Launch date: Dec. 27, 1976, 12:05 p.m. UTC

Rocket: Tsiklon-2

Launch pad: 90

Location: Baikonur Cosmodrome, Republic of Kazakhstan

...

Latest news about this satellite

There are no fresh news available about this satellite. Check back as we update our databases every day.


Newsletter sign-up

Weekly statistics, charts and insights to help you stay on top of the space industry.